Flag for U.S.A. Weather past 2 weeks in Leawood, Kansas, U.S.A.

Now
32 °F

Ice fog.


Feels Like: 27 °F
Forecast: 31 / 37 °F
Wind: 5 mph from Northeast

Location: Johnson County Executive Airport

Current Time: Dec 18, 2014 at 7:40:00 PM

Latest Report: Dec 18, 2014 at 6:53 PM


Visibility: 5 mi

Pressure: 30.24 "Hg

Humidity: 92%

Dew point: 30 °F

Location of LeawoodLocation

Historic Weather in Leawood — Graph

°F

Leawood temperature yesterday

Maximum temperature yesterday: 31 °F (at 3:53 PM)
Minimum temperature yesterday: 25 °F (at 3:53 AM)
Average temperature yesterday: 28 °F

Past Weeks' High & Low Weather Summary

 TemperatureHumidityPressure
High62 °F (Dec 14, 1:53 PM)100% (Dec 5, 1:53 AM)30.57 "Hg (Dec 5, 1:53 AM)
Low25 °F (Dec 10, 3:53 AM)36% (Dec 3, 5:53 PM)29.55 "Hg (Dec 15, 6:53 AM)
Average39 °F89%30.21 "Hg
* Reported Dec 3 5:53 PM — Dec 18 5:53 PM, Leawood, Weather by CustomWeather, © 2014

Note: Actual official high and low records may vary slightly from our data, if they occured in-between our weather recording intervals... More about our weather records

Advertising

Leawood weather history for previous 24 hours

 ConditionsComfort  
Time TempWeatherWind HumidityBarometerVisibility
5:53 PM
Dec 18
33 °FFog.5 mph88%30.22 "Hg6 mi
4:53 PM33 °FFog.No wind92%30.22 "Hg4 mi
3:53 PM33 °FFog.5 mph92%30.21 "Hg5 mi
2:53 PM33 °FFog.3 mph92%30.20 "Hg5 mi
1:53 PM33 °FFog.5 mph88%30.20 "Hg5 mi
12:53 PM33 °FFog.3 mph88%30.21 "Hg5 mi
11:53 AM32 °FIce fog.6 mph88%30.23 "Hg4 mi
10:53 AM32 °FIce fog.6 mph88%30.25 "Hg1 mi
9:53 AM31 °FIce fog.7 mph89%30.24 "Hg3 mi
8:53 AM29 °FLight snow. Ice fog.7 mph96%30.23 "Hg1 mi
7:53 AM29 °FLight snow. Ice fog.6 mph96%30.23 "Hg1 mi
6:53 AM29 °FLight snow. Ice fog.8 mph93%30.22 "Hg2 mi
6:02 AM29 °FLight snow. Ice fog.6 mph93%30.18 "Hg2 mi
5:53 AM29 °FLight snow. Ice fog.6 mph93%30.22 "Hg2 mi
4:53 AM28 °FLight snow. Ice fog.7 mph96%30.21 "Hg1 mi
3:53 AM28 °FLight snow. Ice fog.7 mph96%30.22 "Hg2 mi
2:53 AM28 °FLight snow. Ice fog.3 mph96%30.24 "Hg2 mi
1:53 AM28 °FLight snow. Ice fog.5 mph96%30.24 "Hg2 mi
12:58 AM28 °FLight snow. Ice fog.6 mph96%30.22 "Hg2 mi
11:58 PM
Dec 17
28 °FLight snow. Ice fog.3 mph96%30.24 "Hg1 mi
10:53 PM28 °FLight snow. Ice fog.3 mph93%30.28 "Hg1 mi
9:53 PM30 °FOvercast.7 mph75%30.25 "Hg10 mi
8:53 PM30 °FMostly cloudy.6 mph72%30.27 "Hg10 mi
7:53 PM30 °FOvercast.3 mph69%30.28 "Hg10 mi
Weather by CustomWeather, © 2014

See weather overviewHow to use our weather pages